Weather History for West Plains, MO

Change the Weather History Date:

Tuesday, April 15, 2014

  Actual Average Record
Temperature  
Mean Temperature 40 °F 57 °F  
Max Temperature 53 °F 70 °F 84 °F (1967)
Min Temperature 27 °F 45 °F 25 °F (1950)
Degree Days  
Heating Degree Days 25 9  
Month to date heating degree days 161 156  
Since 1 July heating degree days 4661 4166  
Cooling Degree Days 0 1  
Month to date cooling degree days 7 10  
Year to date cooling degree days 7 14  
Moisture  
Dew Point 22 °F    
Average Humidity 53    
Maximum Humidity 75    
Minimum Humidity 30    
Precipitation  
Precipitation 0.00 in 0.14 in 1.53 in (1956)
Month to date precipitation 3.35 2.06  
Year to date precipitation 8.42 11.91  
Sea Level Pressure  
Sea Level Pressure 30.20 in    
Wind  
Wind Speed 6 mph (NNW)    
Max Wind Speed 15 mph    
Max Gust Speed 23 mph    
Visibility 10 miles    
Events      
T = Trace of Precipitation, MM = Missing Value Source: NWS Daily Summary

Daily Weather History Graph

Daily Weather History Graph

Search for Another Location

Airport:

Trip Planner

Search our weather history database for the weather conditions in past years. The results will help you decide how hot, cold, wet, or windy it might be!

Date:

Astronomy

Apr. 15, 2014 Rise Set
Actual Time 6:33 AM CDT 7:42 PM CDT
Civil Twilight 6:06 AM CDT 8:09 PM CDT
Nautical Twilight 5:34 AM CDT 8:41 PM CDT
Astronomical Twilight 5:01 AM CDT 9:14 PM CDT
Moon 8:22 PM CDT (4/15) 6:41 AM CDT (4/15)
Length of Visible Light 14h 02m
Length of Day
13h 08m
Full, 100% of the Moon is Illuminated
Apr 15
Full
Apr 22
Last Quarter
Apr 29
New
May 6
First Quarter
May 14
Full

Hourly Weather History & Observations

Time (CDT) Temp. Windchill Dew Point Humidity Pressure Visibility Wind Dir Wind Speed Gust Speed Precip Events Conditions
12:53 AM 32.0 °F 25.6 °F 23.0 °F 69% 30.14 in 10.0 mi NNW 6.9 mph - N/A   Clear
1:53 AM 32.0 °F 23.6 °F 21.9 °F 66% 30.15 in 10.0 mi North 10.4 mph - N/A   Clear
2:53 AM 30.9 °F 23.5 °F 21.0 °F 67% 30.15 in 10.0 mi North 8.1 mph - N/A   Clear
3:53 AM 30.0 °F 24.1 °F 21.0 °F 69% 30.16 in 10.0 mi NW 5.8 mph - N/A   Clear
4:53 AM 28.9 °F 23.9 °F 21.0 °F 72% 30.17 in 10.0 mi NW 4.6 mph - N/A   Clear
5:53 AM 28.0 °F 24.2 °F 19.9 °F 72% 30.19 in 10.0 mi NNW 3.5 mph - N/A   Clear
6:53 AM 28.0 °F 22.8 °F 19.9 °F 72% 30.22 in 10.0 mi NW 4.6 mph - N/A   Clear
7:53 AM 33.1 °F 27.7 °F 21.9 °F 64% 30.23 in 10.0 mi North 5.8 mph - N/A   Clear
8:53 AM 37.0 °F 30.4 °F 23.0 °F 57% 30.24 in 10.0 mi NNE 9.2 mph - N/A   Clear
9:53 AM 39.9 °F 33.9 °F 19.9 °F 45% 30.25 in 10.0 mi North 9.2 mph 17.3 mph N/A   Clear
10:53 AM 43.0 °F 37.2 °F 21.0 °F 42% 30.26 in 10.0 mi NNW 10.4 mph 18.4 mph N/A   Partly Cloudy
11:53 AM 45.0 °F 40.1 °F 21.0 °F 39% 30.25 in 10.0 mi NNW 9.2 mph 18.4 mph N/A   Clear
12:53 PM 46.0 °F - 21.9 °F 39% 30.23 in 10.0 mi North - - N/A   Clear
1:53 PM 48.9 °F - 21.9 °F 35% 30.22 in 10.0 mi NW 13.8 mph - N/A   Clear
2:53 PM 48.9 °F - 19.9 °F 32% 30.20 in 10.0 mi NW 4.6 mph 19.6 mph N/A   Clear
3:53 PM 51.1 °F - 21.9 °F 32% 30.17 in 10.0 mi North 9.2 mph 19.6 mph N/A   Clear
4:53 PM 52.0 °F - 21.9 °F 31% 30.17 in 10.0 mi Variable 3.5 mph - N/A   Clear
5:53 PM 52.0 °F - 21.9 °F 31% 30.17 in 10.0 mi NNE 6.9 mph - N/A   Clear
6:53 PM 50.0 °F - 21.0 °F 32% 30.16 in 10.0 mi North 3.5 mph - N/A   Clear
7:53 PM 43.0 °F 41.3 °F 24.1 °F 47% 30.16 in 10.0 mi East 3.5 mph - N/A   Clear
8:53 PM 42.1 °F - 24.1 °F 49% 30.18 in 10.0 mi Calm Calm - N/A   Clear
9:53 PM 39.9 °F - 24.1 °F 53% 30.20 in 10.0 mi Calm Calm - N/A   Clear
10:53 PM 37.9 °F 35.5 °F 24.1 °F 57% 30.21 in 10.0 mi SSE 3.5 mph - N/A   Clear
11:53 PM 39.9 °F 36.7 °F 21.0 °F 47% 30.20 in 10.0 mi SE 4.6 mph - N/A   Clear